When you browse on this site, cookies collect data to enhance your experience and personalize the content and advertising you see.
Visit our Privacy Policy to learn more. By continuing to use the site, you agree to this use of cookies and data.
EN

Hourly Weather Annaba

Today, 6 July, Monday

Time Temperature Precipitation Wind Pressure Humidity
00:00 +21°C° 0 mm 3 mps 761 mmHg 87%
01:00 +21°C° 0 mm 3 mps 761 mmHg 88%
02:00 +20°C° 0 mm 3 mps 760 mmHg 88%
03:00 +20°C° 0 mm 3 mps 760 mmHg 87%
04:00 +20°C° 0 mm 3 mps 759 mmHg 87%
05:00 +21°C° 0 mm 3 mps 759 mmHg 82%
06:00 +22°C° 0 mm 4 mps 759 mmHg 76%
07:00 +23°C° 0 mm 4 mps 759 mmHg 71%
08:00 +26°C° 0 mm 4 mps 759 mmHg 64%
09:00 +28°C° 0 mm 5 mps 759 mmHg 56%
10:00 +29°C° 0 mm 5 mps 759 mmHg 49%
11:00 +30°C° 0 mm 6 mps 759 mmHg 49%
12:00 +30°C° 0 mm 7 mps 759 mmHg 49%
13:00 +32°C° 0 mm 8 mps 759 mmHg 49%
14:00 +32°C° 0 mm 8 mps 758 mmHg 53%
15:00 +31°C° 0 mm 8 mps 758 mmHg 56%
16:00 +31°C° 0 mm 8 mps 757 mmHg 60%
17:00 +29°C° 0 mm 8 mps 758 mmHg 64%
18:00 +28°C° 0 mm 7 mps 758 mmHg 68%
19:00 +27°C° 0 mm 6 mps 758 mmHg 72%
20:00 +26°C° 0 mm 6 mps 758 mmHg 76%
21:00 +26°C° 0 mm 6 mps 759 mmHg 81%
22:00 +25°C° 0 mm 5 mps 759 mmHg 86%
23:00 +23°C° 0 mm 5 mps 759 mmHg 86%

Tomorrow, 7 July, Tuesday

Time Temperature Precipitation Wind Pressure Humidity
00:00 +23°C° 0 mm 5 mps 759 mmHg 87%
01:00 +23°C° 0 mm 5 mps 759 mmHg 87%
02:00 +23°C° 0 mm 6 mps 758 mmHg 87%
03:00 +23°C° 0 mm 6 mps 758 mmHg 86%
04:00 +22°C° 0 mm 6 mps 758 mmHg 86%
05:00 +23°C° 0 mm 6 mps 758 mmHg 82%
06:00 +24°C° 0 mm 6 mps 758 mmHg 78%
07:00 +24°C° 0 mm 6 mps 759 mmHg 74%
08:00 +27°C° 0 mm 6 mps 759 mmHg 66%
09:00 +28°C° 0 mm 6 mps 759 mmHg 58%
10:00 +30°C° 0 mm 6 mps 759 mmHg 50%
11:00 +30°C° 0 mm 6 mps 759 mmHg 48%
12:00 +32°C° 0 mm 6 mps 759 mmHg 45%
13:00 +32°C° 0 mm 6 mps 759 mmHg 43%
14:00 +32°C° 0 mm 6 mps 759 mmHg 44%
15:00 +32°C° 0 mm 6 mps 759 mmHg 45%
16:00 +30°C° 0 mm 6 mps 759 mmHg 45%
17:00 +29°C° 0 mm 5 mps 759 mmHg 49%
18:00 +28°C° 0 mm 4 mps 759 mmHg 53%
19:00 +27°C° 0 mm 4 mps 760 mmHg 57%
20:00 +26°C° 0 mm 3 mps 760 mmHg 62%
21:00 +25°C° 0 mm 3 mps 760 mmHg 68%
22:00 +23°C° 0 mm 2 mps 761 mmHg 74%
23:00 +23°C° 0 mm 2 mps 760 mmHg 75%

Day after tomorrow, 8 July, Wednesday

Time Temperature Precipitation Wind Pressure Humidity
00:00 +23°C° 0 mm 2 mps 760 mmHg 76%
01:00 +21°C° 0 mm 2 mps 760 mmHg 77%
02:00 +21°C° 0 mm 2 mps 760 mmHg 77%
03:00 +21°C° 0 mm 2 mps 759 mmHg 77%
04:00 +21°C° 0 mm 2 mps 759 mmHg 77%
05:00 +23°C° 0 mm 2 mps 759 mmHg 71%
06:00 +24°C° 0 mm 2 mps 759 mmHg 66%
07:00 +25°C° 0 mm 2 mps 760 mmHg 60%
08:00 +27°C° 0 mm 2 mps 760 mmHg 54%
09:00 +29°C° 0 mm 3 mps 760 mmHg 49%
10:00 +30°C° 0 mm 4 mps 760 mmHg 44%
11:00 +32°C° 0 mm 4 mps 760 mmHg 42%
12:00 +33°C° 0 mm 5 mps 760 mmHg 41%
13:00 +33°C° 0 mm 6 mps 759 mmHg 39%
14:00 +33°C° 0 mm 6 mps 759 mmHg 44%
15:00 +32°C° 0 mm 6 mps 759 mmHg 48%
16:00 +32°C° 0 mm 5 mps 759 mmHg 52%
17:00 +30°C° 0 mm 4 mps 759 mmHg 57%
18:00 +29°C° 0 mm 4 mps 760 mmHg 62%
19:00 +27°C° 0 mm 3 mps 760 mmHg 66%
20:00 +26°C° 0 mm 2 mps 760 mmHg 73%
21:00 +25°C° 0 mm 1 mps 761 mmHg 80%
22:00 +23°C° 0 mm 1 mps 761 mmHg 87%
23:00 +23°C° 0 mm 1 mps 761 mmHg 87%

9 July, Thursday

Time Temperature Precipitation Wind Pressure Humidity
00:00 +21°C° 0 mm 0 mps 761 mmHg 87%
01:00 +20°C° 0 mm 0 mps 761 mmHg 88%
02:00 +20°C° 0 mm 0 mps 761 mmHg 88%
03:00 +22°C° 0 mm 1 mps 761 mmHg 88%
04:00 +22°C° 0 mm 1 mps 760 mmHg 88%
05:00 +23°C° 0 mm 1 mps 760 mmHg 83%
06:00 +24°C° 0 mm 1 mps 761 mmHg 77%
07:00 +25°C° 0 mm 1 mps 761 mmHg 72%
08:00 +27°C° 0 mm 1 mps 761 mmHg 60%
09:00 +30°C° 0 mm 2 mps 761 mmHg 49%
10:00 +32°C° 0 mm 2 mps 760 mmHg 38%
11:00 +34°C° 0 mm 3 mps 760 mmHg 37%
12:00 +35°C° 0 mm 4 mps 760 mmHg 36%
13:00 +36°C° 0 mm 5 mps 759 mmHg 35%
14:00 +35°C° 0 mm 5 mps 759 mmHg 39%
15:00 +34°C° 0 mm 6 mps 759 mmHg 44%
16:00 +33°C° 0 mm 6 mps 759 mmHg 48%
17:00 +32°C° 0 mm 5 mps 759 mmHg 54%
18:00 +29°C° 0 mm 5 mps 759 mmHg 60%
19:00 +28°C° 0 mm 4 mps 759 mmHg 66%
20:00 +27°C° 0 mm 3 mps 760 mmHg 72%
21:00 +25°C° 0 mm 3 mps 760 mmHg 79%
22:00 +24°C° 0 mm 2 mps 761 mmHg 86%
23:00 +24°C° 0 mm 2 mps 760 mmHg 86%

10 July, Friday

Time Temperature Precipitation Wind Pressure Humidity
00:00 +24°C° 0 mm 2 mps 760 mmHg 85%
01:00 +23°C° 0 mm 2 mps 760 mmHg 85%
02:00 +23°C° 0 mm 2 mps 759 mmHg 82%
03:00 +23°C° 0 mm 2 mps 759 mmHg 78%
04:00 +23°C° 0 mm 2 mps 758 mmHg 75%
05:00 +25°C° 0 mm 2 mps 758 mmHg 69%
06:00 +26°C° 0 mm 2 mps 758 mmHg 63%
07:00 +27°C° 0 mm 2 mps 758 mmHg 57%
08:00 +29°C° 0 mm 2 mps 758 mmHg 51%
09:00 +33°C° 0 mm 3 mps 758 mmHg 44%
10:00 +35°C° 0 mm 3 mps 758 mmHg 38%
11:00 +36°C° 0 mm 4 mps 758 mmHg 37%
12:00 +36°C° 0 mm 4 mps 758 mmHg 35%
13:00 +36°C° 0 mm 5 mps 758 mmHg 34%
14:00 +36°C° 0 mm 5 mps 758 mmHg 37%
15:00 +35°C° 0 mm 5 mps 758 mmHg 39%
16:00 +35°C° 0 mm 6 mps 758 mmHg 42%
17:00 +33°C° 0 mm 5 mps 758 mmHg 46%
18:00 +32°C° 0 mm 4 mps 758 mmHg 50%
19:00 +30°C° 0 mm 3 mps 758 mmHg 54%
20:00 +29°C° 0 mm 3 mps 759 mmHg 58%
21:00 +27°C° 0 mm 2 mps 759 mmHg 63%
22:00 +26°C° 0 mm 1 mps 760 mmHg 68%
23:00 +26°C° 0 mm 1 mps 760 mmHg 66%

11 July, Saturday

Time Temperature Precipitation Wind Pressure Humidity
00:00 +26°C° 0 mm 2 mps 759 mmHg 65%
01:00 +26°C° 0 mm 2 mps 759 mmHg 64%
02:00 +26°C° 0 mm 2 mps 759 mmHg 61%
03:00 +26°C° 0 mm 2 mps 758 mmHg 59%
04:00 +26°C° 0 mm 1 mps 758 mmHg 56%
05:00 +27°C° 0 mm 1 mps 758 mmHg 54%
06:00 +28°C° 0 mm 2 mps 758 mmHg 52%
07:00 +29°C° 0 mm 2 mps 758 mmHg 49%
08:00 +31°C° 0 mm 2 mps 758 mmHg 45%
09:00 +34°C° 0 mm 2 mps 758 mmHg 40%
10:00 +36°C° 0 mm 2 mps 759 mmHg 35%
11:00 +37°C° 0 mm 3 mps 758 mmHg 34%
12:00 +38°C° 0 mm 4 mps 758 mmHg 33%
13:00 +38°C° 0 mm 4 mps 758 mmHg 33%
14:00 +38°C° 0 mm 4 mps 758 mmHg 34%
15:00 +37°C° 0 mm 5 mps 758 mmHg 36%
16:00 +36°C° 0 mm 5 mps 757 mmHg 38%
17:00 +35°C° 0 mm 5 mps 757 mmHg 42%
18:00 +34°C° 0 mm 4 mps 758 mmHg 45%
19:00 +32°C° 0 mm 4 mps 758 mmHg 49%
20:00 +30°C° 0 mm 3 mps 758 mmHg 54%
21:00 +29°C° 0 mm 2 mps 758 mmHg 60%
22:00 +27°C° 0 mm 2 mps 759 mmHg 65%
23:00 +27°C° 0 mm 2 mps 759 mmHg 65%
Show more